{"data":{"norad_id":65110,"epoch":"2026-09-21T17:35:54.879648Z","epoch_age_seconds":58765,"freshness":"FRESH","line1":"1 65110U 25168E   26264.73327407 -.00000089  00000+0  75506-4 0  9992","line2":"2 65110  50.0059 339.4263 0008237  18.8609 341.2567 13.29324632 55537","mean_motion":13.29324632,"eccentricity":0.0008237,"inclination_deg":50.0059,"raan_deg":339.4263,"arg_perigee_deg":18.8609,"mean_anomaly_deg":341.2567,"bstar":7.5506e-5,"rev_number":5553,"period_min":108.32568398537,"perigee_km":1143.1113766269,"apogee_km":1155.5120956749,"semimajor_km":7527.4487361509,"source":"CELESTRAK","updated_at":"2026-09-22T09:00:30.138035Z"}}